Regional Weather Roundup
Issued by NWS

Home | Current Version | Previous Version | Graphics & Text | Print | Product List | Glossary Off
Versions: 1 2 3 4 5 6 7 8 9 10 11 12 13 14 15 16 17 18 19 20 21 22 23 24 25 26 27 28 29 30 31 32 33 34 35 36 37 38 39 40 41 42 43 44 45 46 47 48 49 50

000
ASUS43 KLSX 291607
RWRMO

WEATHER SUMMARY FOR MISSOURI
NATIONAL WEATHER SERVICE SPRINGFIELD MO
1100 AM CDT TUE JUL 29 2014

NOTE: "FAIR" INDICATES FEW OR NO CLOUDS BELOW 12,000 FEET WITH NO
       SIGNIFICANT WEATHER AND/OR OBSTRUCTIONS TO VISIBILITY.
       CURRENT SKY AND/OR WEATHER CONDITIONS ARE NOT AVAILABLE FOR
       CHILLICOTHE AND FARMINGTON.

MOZ001>031-035>038-043-044-053-054-291700-
...NORTHERN AND WESTERN MISSOURI...

CITY           SKY/WX    TMP DP  RH WIND       PRES   REMARKS
KANSAS CTY INT MOSUNNY   75  60  59 W7        30.19S
KANSAS C DTWN  SUNNY     78  60  53 MISG      30.18R
LEE`S SUMMIT   MOSUNNY   76  57  51 NW7       30.19S
ST JOSEPH      SUNNY     74  60  61 N6        30.20R
CHILLICOTHE      N/A     77  56  48 CALM      30.19S
KIRKSVILLE     SUNNY     75  55  49 VRB5      30.19R

$$
MOZ066>068-077>081-088>096-101>105-291700-
...SOUTHWEST MISSOURI...

CITY           SKY/WX    TMP DP  RH WIND       PRES   REMARKS
SPRINGFIELD    SUNNY     77  55  46 CALM      30.20R
JOPLIN         SUNNY     78  56  46 VRB5      30.20R

$$
MOZ032>034-039>042-045>050-055>058-069>072-291700-
...CENTRAL MISSOURI...

CITY           SKY/WX    TMP DP  RH WIND       PRES   REMARKS
COLUMBIA       SUNNY     75  57  53 W8        30.18S
JEFFERSON CITY SUNNY     75  56  51 VRB5      30.17S
ROLLA          SUNNY     74  52  46 N9        30.17S
SEDALIA        SUNNY     77  59  53 NW7       30.19R
WHITEMAN AFB   SUNNY     75  49  39 W6        30.17S
OSAGE BEACH    MOSUNNY   75  55  50 W5        30.18S

$$
MOZ051-052-059>065-291700-
...EAST CENTRAL MISSOURI...

CITY           SKY/WX    TMP DP  RH WIND       PRES   REMARKS
ST LOUIS INTL  MOSUNNY   76  56  49 NW7       30.16S
SPIRIT OF STL  MOSUNNY   74  54  49 CALM      30.15S
ST CHARLES     SUNNY     73  58  59 VRB7      30.15R

$$
MOZ072>076-082>087-097>100-106>115-291700-
...SOUTH CENTRAL AND SOUTHEAST MISSOURI...

CITY           SKY/WX    TMP DP  RH WIND       PRES   REMARKS
CAPE GIRARDEAU SUNNY     74  54  49 NE7       30.16R
FARMINGTON     SUNNY     72  52  49 N7        30.19S
POPLAR BLUFF   SUNNY     74  51  44 NE9       30.16R
WEST PLAINS    SUNNY     75  52  44 VRB3      30.20S

$$


USA.gov is the U.S. government's official web portal to all federal, state and local government web resources and services.